User: anonymous   Login
Location: Lussas
(44.6119°N, 4.4726°E)
Time: 16:17:29
(UTC+00:00)
Language:

ASTRO F (AKARI) - Orbit

View from above orbital plane
View from above orbital plane
View from above satellite
View from above satellite

Ground track
Ground track

The orbit data is extracted from the following two-line orbital elements,

1 28939U 06005A   21062.75554721  .00006091  00000-0  15390-3 0  9996
2 28939  98.2502  73.3250 0090358 135.4258 225.4297 15.36097181820677
Epoch (UTC): 03 March 2021 18:07:59
Eccentricity: 0.0090358
inclination: 98.2502°
perigee height: 396 km
apogee height: 519 km
right ascension of ascending node: 73.3250°
argument of perigee: 135.4258°
revolutions per day: 15.36097181
mean anomaly at epoch: 225.4297°
orbit number at epoch: 82067

The dashed part of the orbit path shows where the satellite is in the earth's shadow,  

DLR